Regional Weather Roundup
Issued by NWS Northern Indiana

Home | Current Version | Previous Version | Graphics & Text | Print | Product List | Glossary On
Versions: 1 2 3 4 5 6 7 8 9 10 11 12 13 14 15 16 17 18 19 20 21 22 23 24 25 26 27 28 29 30 31 32 33 34 35 36 37 38 39 40 41 42 43 44 45 46 47 48 49 50
000
ASUS43 KIWX 031200
RWRIWX

KIWX WEATHER ROUNDUP
NATIONAL WEATHER SERVICE NORTHERN INDIANA
700 AM EST TUE MAR 03 2015

NOTE: "FAIR" INDICATES FEW OR NO CLOUDS BELOW 12,000 FEET WITH NO
SIGNIFICANT WEATHER AND/OR OBSTRUCTIONS TO VISIBILITY.

* THESE STATIONS ARE NOT UNDER NWS QUALITY CONTROL. THEY ALSO MAY NOT
  REPORT WEATHER SUCH AS PRECIPITATION OR FOG.

INZ001>027-031300-
NORTHERN INDIANA

CITY           SKY/WX    TMP DP  RH WIND       PRES   REMARKS
GARY*          FLURRIES  28  19  69 S10       30.03F WCI  19
SOUTH BEND     LGT SNOW  25  19  78 SE14      30.04F WCI  13
6HR MIN TEMP:  25; 6HR MAX TEMP:  26; 6HR PCP:  0.03;

ELKHART*       LGT SNOW  25  16  68 SE9       30.09  WCI  15
GOSHEN         LGT SNOW  24  17  74 SE6       30.09F WCI  17
6HR MIN TEMP:  24; 6HR MAX TEMP:  25; 6HR PCP:  0.02;

ANGOLA*        MOCLDY    21  14  73 SE8       30.09F WCI  12
FORT WAYNE     FRZ RAIN  25  20  81 SE10      30.12F WCI  15
6HR MIN TEMP:  22; 6HR MAX TEMP:  25; 6HR PCP:  0.05;


$$
INZ028>050-031300-
CENTRAL INDIANA

CITY           SKY/WX    TMP DP  RH WIND       PRES   REMARKS
LAFAYETTE      CLOUDY    27  22  81 SE8       30.04F WCI  19
6HR MIN TEMP:  24; 6HR MAX TEMP:  28; 6HR PCP:  0.01;

KOKOMO*        CLOUDY    27  19  74 SE10      30.06F WCI  17
6HR MIN TEMP:  25; 6HR MAX TEMP:  27;

MUNCIE*        CLOUDY    28  20  71 SE9       30.07F WCI  19
6HR MIN TEMP:  22; 6HR MAX TEMP:  28; 6HR PCP:  0.01;

INDIANAPOLIS   CLOUDY    28  18  66 SE9       30.05F WCI  19
6HR MIN TEMP:  26; 6HR MAX TEMP:  28; 6HR PCP: TRACE;


$$
MIZ043>046-050>051-056>058-064>065-071>073-077>080-031300-
SOUTHWEST LOWER MICHIGAN

CITY           SKY/WX    TMP DP  RH WIND       PRES   REMARKS
BATTLE CREEK   CLOUDY    25  15  66 S7        30.10S WCI  17
6HR MIN TEMP:  24; 6HR MAX TEMP:  26; 6HR PCP: TRACE;

BENTON HARBOR  LGT SNOW  23  18  81 SE10      30.05F VSB 1   WCI  12
6HR MIN TEMP:  23; 6HR MAX TEMP:  25; 6HR PCP: TRACE;

COLDWATER*     CLOUDY    23  14  68 S5        30.11S WCI  17
6HR MIN TEMP:  23; 6HR MAX TEMP:  24;

HILLSDALE*     FLURRIES  22  14  71 SE9       30.10R WCI  12
6HR MIN TEMP:  22; 6HR MAX TEMP:  23;

HOLLAND        LGT SNOW  24  20  84 SE12      30.07F VSB 3/4 WCI  13
6HR MIN TEMP:  24; 6HR MAX TEMP:  27; 6HR PCP: TRACE;

GRAND RAPIDS   CLOUDY    24  15  68 SE8       30.08F WCI  15
6HR MIN TEMP:  23; 6HR MAX TEMP:  25;

KALAMAZOO      LGT SNOW  24  16  71 S7        30.10S WCI  16
6HR MIN TEMP:  24; 6HR MAX TEMP:  25;

STURGIS*       FLURRIES  23  16  74 S9        30.11R WCI  13
THREE RIVERS*  CLOUDY    25  15  67 S8        30.12R WCI  16

$$
OHZ001>008-015>018-024>025-031300-
NORTHWEST OHIO

CITY           SKY/WX    TMP DP  RH WIND       PRES   REMARKS
DEFIANCE       MIX PCPN  24  14  65 SE7       30.15S WCI  16
6HR MIN TEMP:  22; 6HR MAX TEMP:  25; 6HR PCP: TRACE;

FINDLAY        CLOUDY    25  14  63 SE12      30.10F WCI  14
6HR MIN TEMP:  20; 6HR MAX TEMP:  25;

TOLEDO EXPRESS CLOUDY    22  13  68 VRB3      30.14F
6HR MIN TEMP:  21; 6HR MAX TEMP:  22;

TOLEDO METCALF CLOUDY    22  14  71 E8        30.14F WCI  12
6HR MIN TEMP:  22; 6HR MAX TEMP:  22;

LIMA           MIX PCPN  26  15  63 S7        30.14R WCI  18
6HR MIN TEMP:  21; 6HR MAX TEMP:  26; 6HR PCP: TRACE;


$$
AND FOR LAKE MICHIGAN COASTAL AND OPEN LAKE BUOY OBSERVATIONS

STATION/POSITION TEMP    WIND        PRES    VSBY  WAVE
                 AIR SEA DIR/SP/G                  HT/PER
                 (F)     (DEG/KT/KT) (MB)    (MI)  (FT/S)
CALUMET HARBOR           150/  8/ 10 1016.3F
MICHIGAN CITY     26     140/  9/ 11   N/A
SAINT JOSEPH      26     140/  3/  7 1020.0S

$$
&&


USA.gov is the U.S. government's official web portal to all federal, state and local government web resources and services.